Change the Weather History Date:

Wednesday, May 15, 2013

  Actual Average Record
Temperature  
Mean Temperature 78 °F -  
Max Temperature 84 °F 80 °F 89 °F (1986)
Min Temperature 73 °F 70 °F 69 °F (1991)
Cooling Degree Days 14    
Growing Degree Days 28 (Base 50)    
Moisture  
Dew Point 68 °F    
Average Humidity 72    
Maximum Humidity 85    
Minimum Humidity 58    
Precipitation  
Precipitation 0.03 in - - ()
Sea Level Pressure  
Sea Level Pressure 30.05 in    
Wind  
Wind Speed 7 mph (SE)    
Max Wind Speed 12 mph    
Max Gust Speed -    
Visibility 10 miles    
Events Rain    
Averages and records for this station are not official NWS values.
T = Trace of Precipitation, MM = Missing Value Source: NWS Daily Summary

Daily Weather History Graph

Daily Weather History Graph

Search for Another Location

Airport or City:

Trip Planner

Search our weather history database for the weather conditions in past years. The results will help you decide how hot, cold, wet, or windy it might be!

Date:

Astronomy

May. 15, 2013 Rise Set
Actual Time 5:48 AM HST 6:52 PM HST
Civil Twilight 5:24 AM HST 7:16 PM HST
Nautical Twilight 4:56 AM HST 7:44 PM HST
Astronomical Twilight 4:28 AM HST 8:13 PM HST
Moon 10:26 AM HST (5/15) 11:32 PM HST (5/15)
Length of Visible Light 13h 51m
Length of Day
13h 04m
Waxing Crescent, 29% of the Moon is Illuminated
May 15
Waxing Crescent
May 17
First Quarter
May 24
Full
May 31
Last Quarter
Jun 8
New

Hourly Weather History & Observations

Time (HST) Temp. Heat Index Dew Point Humidity Pressure Visibility Wind Dir Wind Speed Gust Speed Precip Events Conditions
12:11 AM 75.2 °F - 68.0 °F 78% 30.06 in 10.0 mi SE 9.2 mph - N/A   Overcast
12:19 AM 75.2 °F - 68.0 °F 78% 30.05 in 10.0 mi ESE 8.1 mph - 0.00 in Rain Light Rain
12:53 AM 75.9 °F - 66.9 °F 74% 30.05 in 10.0 mi SE 4.6 mph - 0.00 in   Mostly Cloudy
1:25 AM 75.2 °F - 69.8 °F 83% 30.04 in 10.0 mi ESE 5.8 mph - N/A   Mostly Cloudy
1:53 AM 75.9 °F - 69.1 °F 79% 30.04 in 10.0 mi SE 11.5 mph - N/A   Mostly Cloudy
2:03 AM 75.2 °F - 69.8 °F 83% 30.03 in 10.0 mi South 6.9 mph - N/A   Mostly Cloudy
2:19 AM 75.2 °F - 69.8 °F 83% 30.03 in 10.0 mi East 8.1 mph - 0.00 in Rain Light Rain
2:53 AM 75.0 °F - 69.1 °F 82% 30.02 in 10.0 mi SE 6.9 mph - 0.02 in Rain Light Rain
3:53 AM 75.0 °F - 69.1 °F 82% 30.02 in 10.0 mi NE 4.6 mph - 0.00 in   Clear
4:53 AM 73.9 °F - 69.1 °F 85% 30.02 in 10.0 mi ENE 4.6 mph - N/A   Scattered Clouds
5:04 AM 73.4 °F - 68.0 °F 83% 30.02 in 10.0 mi East 3.5 mph - N/A   Mostly Cloudy
5:21 AM 73.4 °F - 68.0 °F 83% 30.03 in 10.0 mi East 3.5 mph - N/A   Mostly Cloudy
5:53 AM 73.0 °F - 68.0 °F 84% 30.03 in 10.0 mi East 4.6 mph - N/A   Partly Cloudy
6:43 AM 75.2 °F - 66.2 °F 73% 30.05 in 10.0 mi East 4.6 mph - N/A   Mostly Cloudy
6:53 AM 75.9 °F - 68.0 °F 76% 30.06 in 10.0 mi ENE 3.5 mph - N/A   Mostly Cloudy
7:53 AM 78.1 °F - 70.0 °F 76% 30.08 in 10.0 mi Calm Calm - N/A   Partly Cloudy
8:53 AM 79.0 °F - 68.0 °F 69% 30.09 in 10.0 mi WSW 5.8 mph - N/A   Mostly Cloudy
9:53 AM 81.0 °F 84.1 °F 69.1 °F 67% 30.09 in 10.0 mi SW 9.2 mph - N/A   Clear
10:53 AM 81.0 °F 84.1 °F 69.1 °F 67% 30.08 in 10.0 mi WSW 8.1 mph - N/A   Scattered Clouds
11:53 AM 82.9 °F 85.8 °F 68.0 °F 60% 30.07 in 10.0 mi WSW 10.4 mph - N/A   Scattered Clouds
12:53 PM 82.0 °F 84.5 °F 66.9 °F 60% 30.06 in 10.0 mi SW 9.2 mph - N/A   Mostly Cloudy
1:53 PM 82.9 °F 85.4 °F 66.9 °F 58% 30.05 in 10.0 mi WSW 9.2 mph - N/A   Overcast
2:53 PM 84.0 °F 87.8 °F 69.1 °F 61% 30.04 in 10.0 mi WSW 10.4 mph - N/A   Mostly Cloudy
3:53 PM 82.9 °F 85.8 °F 68.0 °F 60% 30.03 in 10.0 mi SSW 10.4 mph - N/A   Scattered Clouds
4:53 PM 82.9 °F 85.4 °F 66.9 °F 58% 30.03 in 10.0 mi SW 10.4 mph - N/A   Partly Cloudy
5:53 PM 82.0 °F 84.5 °F 66.9 °F 60% 30.04 in 10.0 mi SSW 10.4 mph - N/A   Overcast
6:53 PM 81.0 °F 83.3 °F 66.9 °F 62% 30.06 in 10.0 mi SSE 10.4 mph - N/A   Overcast
7:53 PM 79.0 °F - 68.0 °F 69% 30.08 in 10.0 mi SE 6.9 mph - 0.01 in   Overcast
8:53 PM 79.0 °F - 66.9 °F 66% 30.09 in 10.0 mi ENE 4.6 mph - N/A   Overcast
9:53 PM 78.1 °F - 66.0 °F 66% 30.10 in 10.0 mi ESE 4.6 mph - N/A   Clear
10:53 PM 78.1 °F - 66.0 °F 66% 30.10 in 10.0 mi ESE 4.6 mph - N/A   Partly Cloudy
11:53 PM 77.0 °F - 66.0 °F 69% 30.10 in 10.0 mi NNE 4.6 mph - N/A   Overcast